Location: Montreal
(45.5000°N, 73.5833°W)
Time: 03:07:42
(UTC-04:00)

Vanguard 2 - Visible Passes

Search period start: 20 October 2017 00:00
Search period end: 30 October 2017 00:00
Orbit: 554 x 2939 km, 32.9° (Epoch: 19 October)

Date Brightness Start Highest point End Pass type
(mag) Time Alt. Az. Time Alt. Az. Time Alt. Az.
20 Oct 12.0 06:48:25 10° S 06:57:55 19° SSE 07:05:43 10° ESE visible
22 Oct 12.1 05:17:54 10° SSE 05:23:52 13° SE 05:29:24 10° ESE visible
23 Oct 11.9 05:31:45 10° S 05:41:39 18° SE 05:50:22 10° ESE visible
24 Oct 11.7 05:47:15 10° SSW 05:59:29 24° SSE 06:09:51 10° ESE visible
25 Oct 12.0 04:03:50 10° SSE 04:07:31 11° SE 04:11:08 10° ESE visible
25 Oct 11.5 06:03:32 10° SSW 06:17:20 29° SSE 06:28:45 10° E visible
26 Oct 11.9 04:16:03 10° S 04:25:09 16° SE 04:33:47 10° ESE visible
26 Oct 11.4 06:20:19 10° SSW 06:35:12 35° SSE 06:47:17 10° E visible
27 Oct 11.7 04:31:05 10° S 04:42:47 22° SE 04:53:45 10° E visible
27 Oct 11.2 06:37:29 10° SW 06:53:08 40° SSE 07:05:36 10° E visible
28 Oct 11.5 04:47:05 10° SSW 05:00:29 28° SSE 05:12:54 10° E visible
28 Oct 11.1 06:54:55 10° SW 07:11:05 45° SSE 07:23:49 10° E visible
29 Oct 11.8 03:01:56 10° SSE 03:08:37 13° SE 03:15:23 10° ESE visible
29 Oct 11.3 05:03:39 10° SSW 05:18:13 33° SSE 05:31:37 10° E visible
